Time,TemperatureF,DewpointF,PressureIn,WindDirection,WindDirectionDegrees,WindSpeedMPH,WindSpeedGustMPH,Humidity,HourlyPrecipIn,Conditions,Clouds,dailyrainin,SoftwareType,DateUTC
2013-01-29 00:09:00,33.8,32.5,29.89,SW,223,1.0,2.0,95,0.00,,,0.00,Wunderground v.1.15,2013-01-29 05:09:00,
2013-01-29 00:19:00,33.8,32.5,29.90,WSW,250,1.0,1.0,95,0.00,,,0.00,Wunderground v.1.15,2013-01-29 05:19:00,
2013-01-29 00:29:00,33.8,32.5,29.90,West,259,0.0,1.0,95,0.00,,,0.00,Wunderground v.1.15,2013-01-29 05:29:00,
2013-01-29 00:39:00,33.9,32.6,29.89,WSW,248,0.0,0.0,95,0.00,,,0.00,Wunderground v.1.15,2013-01-29 05:39:00,
2013-01-29 00:49:00,34.0,32.7,29.89,WSW,249,1.0,1.0,95,0.00,,,0.00,Wunderground v.1.15,2013-01-29 05:49:00,
2013-01-29 00:59:00,34.0,32.7,29.89,WSW,242,0.0,1.0,95,0.00,,,0.00,Wunderground v.1.15,2013-01-29 05:59:00,
2013-01-29 01:09:00,34.0,32.7,29.89,SW,229,1.0,1.0,95,0.00,,,0.00,Wunderground v.1.15,2013-01-29 06:09:00,
2013-01-29 01:19:00,34.0,32.7,29.88,SW,223,1.0,2.0,95,0.00,,,0.00,Wunderground v.1.15,2013-01-29 06:19:00,
2013-01-29 01:29:00,33.7,32.4,29.88,SW,219,1.0,1.0,95,0.00,,,0.00,Wunderground v.1.15,2013-01-29 06:29:00,
2013-01-29 01:39:00,33.5,32.2,29.88,SW,219,0.0,0.0,95,0.00,,,0.00,Wunderground v.1.15,2013-01-29 06:39:00,
2013-01-29 01:49:00,33.7,32.7,29.89,WNW,284,0.0,0.0,96,0.00,,,0.00,Wunderground v.1.15,2013-01-29 06:49:00,
2013-01-29 01:59:00,33.7,32.7,29.89,WSW,256,0.0,0.0,96,0.00,,,0.00,Wunderground v.1.15,2013-01-29 06:59:00,
2013-01-29 02:09:00,33.7,32.7,29.89,WSW,256,0.0,0.0,96,0.00,,,0.00,Wunderground v.1.15,2013-01-29 07:09:00,
2013-01-29 02:19:00,33.8,32.8,29.90,WSW,256,0.0,0.0,96,0.00,,,0.00,Wunderground v.1.15,2013-01-29 07:19:00,
2013-01-29 02:29:00,34.0,33.0,29.90,WSW,256,0.0,0.0,96,0.00,,,0.00,Wunderground v.1.15,2013-01-29 07:29:00,
2013-01-29 02:39:00,34.3,33.3,29.90,WSW,254,0.0,0.0,96,0.00,,,0.00,Wunderground v.1.15,2013-01-29 07:39:00,
2013-01-29 02:49:00,34.5,33.5,29.90,NW,306,1.0,1.0,96,0.00,,,0.00,Wunderground v.1.15,2013-01-29 07:49:00,
2013-01-29 02:59:00,34.9,33.9,29.90,WSW,249,1.0,1.0,96,0.00,,,0.00,Wunderground v.1.15,2013-01-29 07:59:00,
2013-01-29 03:09:00,35.0,34.0,29.90,NNE,17,1.0,2.0,96,0.00,,,0.00,Wunderground v.1.15,2013-01-29 08:09:00,
2013-01-29 03:18:00,35.1,34.1,29.90,West,273,1.0,1.0,96,0.00,,,0.00,Wunderground v.1.15,2013-01-29 08:18:00,
2013-01-29 03:28:00,35.2,34.2,29.90,NNE,21,0.0,0.0,96,0.00,,,0.00,Wunderground v.1.15,2013-01-29 08:28:00,
2013-01-29 03:39:00,35.4,34.4,29.90,NE,38,1.0,2.0,96,0.00,,,0.00,Wunderground v.1.15,2013-01-29 08:39:00,
2013-01-29 03:49:00,35.4,34.4,29.90,North,11,1.0,3.0,96,0.00,,,0.00,Wunderground v.1.15,2013-01-29 08:49:00,
2013-01-29 03:58:00,35.4,34.4,29.90,NW,305,1.0,1.0,96,0.00,,,0.00,Wunderground v.1.15,2013-01-29 08:58:00,
2013-01-29 04:10:00,35.3,34.3,29.90,WSW,242,2.0,2.0,96,0.00,,,0.00,Wunderground v.1.15,2013-01-29 09:10:00,
2013-01-29 04:20:00,35.2,33.9,29.91,North,350,1.0,1.0,95,0.00,,,0.00,Wunderground v.1.15,2013-01-29 09:20:00,
2013-01-29 04:29:00,35.1,33.8,29.91,NW,321,1.0,1.0,95,0.00,,,0.00,Wunderground v.1.15,2013-01-29 09:29:00,
2013-01-29 04:39:00,35.1,33.8,29.91,NNE,17,1.0,1.0,95,0.00,,,0.00,Wunderground v.1.15,2013-01-29 09:39:00,
2013-01-29 04:49:00,34.9,33.6,29.91,West,275,1.0,3.0,95,0.00,,,0.00,Wunderground v.1.15,2013-01-29 09:49:00,
2013-01-29 04:59:00,34.8,33.5,29.91,North,5,1.0,1.0,95,0.00,,,0.00,Wunderground v.1.15,2013-01-29 09:59:00,
2013-01-29 05:09:00,34.8,33.5,29.92,WSW,240,0.0,0.0,95,0.00,,,0.00,Wunderground v.1.15,2013-01-29 10:09:00,
2013-01-29 05:19:00,34.8,33.5,29.92,NW,312,0.0,0.0,95,0.00,,,0.00,Wunderground v.1.15,2013-01-29 10:19:00,
2013-01-29 05:29:00,34.8,33.5,29.92,NNW,336,0.0,0.0,95,0.00,,,0.00,Wunderground v.1.15,2013-01-29 10:29:00,
2013-01-29 05:39:00,34.7,33.4,29.93,East,84,0.0,0.0,95,0.00,,,0.00,Wunderground v.1.15,2013-01-29 10:39:00,
2013-01-29 05:49:00,34.7,33.4,29.94,NE,51,1.0,2.0,95,0.00,,,0.00,Wunderground v.1.15,2013-01-29 10:49:00,
2013-01-29 05:59:00,34.6,33.3,29.94,NE,42,1.0,1.0,95,0.00,,,0.00,Wunderground v.1.15,2013-01-29 10:59:00,
2013-01-29 06:09:00,34.5,33.2,29.95,ENE,65,1.0,1.0,95,0.00,,,0.00,Wunderground v.1.15,2013-01-29 11:09:00,
2013-01-29 06:19:00,34.5,33.2,29.95,SW,214,0.0,0.0,95,0.00,,,0.00,Wunderground v.1.15,2013-01-29 11:19:00,
2013-01-29 06:29:00,34.4,33.1,29.95,NNW,338,0.0,0.0,95,0.00,,,0.00,Wunderground v.1.15,2013-01-29 11:29:00,
2013-01-29 06:39:00,34.3,33.0,29.97,NNE,20,0.0,0.0,95,0.00,,,0.00,Wunderground v.1.15,2013-01-29 11:39:00,
2013-01-29 06:49:00,34.3,33.0,29.98,ESE,102,0.0,0.0,95,0.00,,,0.00,Wunderground v.1.15,2013-01-29 11:49:00,
2013-01-29 06:59:00,34.3,33.0,29.98,ESE,105,0.0,0.0,95,0.00,,,0.00,Wunderground v.1.15,2013-01-29 11:59:00,
2013-01-29 07:09:00,34.3,33.0,29.99,East,81,0.0,0.0,95,0.00,,,0.00,Wunderground v.1.15,2013-01-29 12:09:00,
2013-01-29 07:19:00,34.3,33.0,30.00,SW,226,0.0,0.0,95,0.00,,,0.00,Wunderground v.1.15,2013-01-29 12:19:00,
2013-01-29 07:29:00,34.4,33.1,30.00,WNW,301,0.0,0.0,95,0.00,,,0.00,Wunderground v.1.15,2013-01-29 12:29:00,
2013-01-29 07:39:00,34.4,33.1,30.01,ESE,113,0.0,0.0,95,0.00,,,0.00,Wunderground v.1.15,2013-01-29 12:39:00,
2013-01-29 07:49:00,34.4,33.1,30.01,ESE,111,0.0,1.0,95,0.00,,,0.00,Wunderground v.1.15,2013-01-29 12:49:00,
2013-01-29 07:59:00,34.4,33.1,30.01,NE,53,0.0,1.0,95,0.00,,,0.00,Wunderground v.1.15,2013-01-29 12:59:00,
2013-01-29 08:09:00,34.4,33.1,30.01,ESE,106,1.0,1.0,95,0.00,,,0.00,Wunderground v.1.15,2013-01-29 13:09:00,
2013-01-29 08:18:00,34.5,33.2,30.02,East,90,1.0,1.0,95,0.00,,,0.00,Wunderground v.1.15,2013-01-29 13:18:00,
2013-01-29 08:28:00,34.5,33.2,30.02,NE,53,0.0,0.0,95,0.00,,,0.00,Wunderground v.1.15,2013-01-29 13:28:00,
2013-01-29 08:39:00,34.4,33.1,30.02,ESE,117,1.0,1.0,95,0.00,,,0.00,Wunderground v.1.15,2013-01-29 13:39:00,
2013-01-29 08:49:00,34.4,33.1,30.02,ESE,117,1.0,1.0,95,0.00,,,0.00,Wunderground v.1.15,2013-01-29 13:49:00,
2013-01-29 08:59:00,34.6,33.3,30.02,NE,34,0.0,0.0,95,0.00,,,0.00,Wunderground v.1.15,2013-01-29 13:59:00,
2013-01-29 09:09:00,34.4,33.1,30.03,ENE,73,1.0,1.0,95,0.00,,,0.00,Wunderground v.1.15,2013-01-29 14:09:00,
2013-01-29 09:19:00,34.5,33.2,30.03,SE,130,0.0,0.0,95,0.00,,,0.00,Wunderground v.1.15,2013-01-29 14:19:00,
2013-01-29 09:29:00,34.6,33.3,30.03,ESE,111,0.0,1.0,95,0.00,,,0.00,Wunderground v.1.15,2013-01-29 14:29:00,
2013-01-29 09:39:00,35.0,33.7,30.03,SE,130,0.0,0.0,95,0.00,,,0.00,Wunderground v.1.15,2013-01-29 14:39:00,
2013-01-29 09:49:00,35.1,33.5,30.04,SE,130,1.0,1.0,94,0.00,,,0.00,Wunderground v.1.15,2013-01-29 14:49:00,
2013-01-29 09:59:00,35.6,34.3,30.04,NNW,348,0.0,0.0,95,0.00,,,0.00,Wunderground v.1.15,2013-01-29 14:59:00,
2013-01-29 10:09:00,35.7,34.1,30.05,NNE,33,0.0,1.0,94,0.00,,,0.00,Wunderground v.1.15,2013-01-29 15:09:00,
2013-01-29 10:19:00,35.7,34.1,30.06,NNE,32,1.0,1.0,94,0.00,,,0.00,Wunderground v.1.15,2013-01-29 15:19:00,
2013-01-29 10:29:00,35.8,34.2,30.06,ESE,105,1.0,1.0,94,0.00,,,0.00,Wunderground v.1.15,2013-01-29 15:29:00,
2013-01-29 10:39:00,36.0,34.4,30.05,ESE,118,1.0,1.0,94,0.00,,,0.00,Wunderground v.1.15,2013-01-29 15:39:00,
2013-01-29 10:49:00,35.9,34.1,30.05,NE,50,1.0,1.0,93,0.00,,,0.00,Wunderground v.1.15,2013-01-29 15:49:00,
2013-01-29 10:59:00,36.1,34.3,30.05,NE,51,1.0,1.0,93,0.00,,,0.00,Wunderground v.1.15,2013-01-29 15:59:00,
2013-01-29 11:09:00,36.2,34.4,30.05,ESE,103,2.0,2.0,93,0.00,,,0.00,Wunderground v.1.15,2013-01-29 16:09:00,
2013-01-29 11:19:00,36.5,34.4,30.05,NE,50,1.0,1.0,92,0.00,,,0.00,Wunderground v.1.15,2013-01-29 16:19:00,
2013-01-29 11:29:00,36.3,34.2,30.05,NNE,31,1.0,2.0,92,0.00,,,0.00,Wunderground v.1.15,2013-01-29 16:29:00,
2013-01-29 11:39:00,36.3,34.2,30.05,ENE,63,1.0,1.0,92,0.00,,,0.00,Wunderground v.1.15,2013-01-29 16:39:00,
2013-01-29 11:49:00,36.7,34.6,30.05,NE,55,1.0,2.0,92,0.00,,,0.00,Wunderground v.1.15,2013-01-29 16:49:00,
2013-01-29 11:59:00,36.8,34.7,30.05,ENE,69,1.0,2.0,92,0.00,,,0.00,Wunderground v.1.15,2013-01-29 16:59:00,
2013-01-29 12:09:00,37.3,34.9,30.04,North,350,1.0,1.0,91,0.00,,,0.00,Wunderground v.1.15,2013-01-29 17:09:00,
2013-01-29 12:19:00,37.4,34.7,30.03,NE,40,1.0,2.0,90,0.00,,,0.00,Wunderground v.1.15,2013-01-29 17:19:00,
2013-01-29 12:29:00,38.1,35.4,30.03,NNE,26,1.0,1.0,90,0.00,,,0.00,Wunderground v.1.15,2013-01-29 17:29:00,
2013-01-29 12:39:00,38.6,35.6,30.04,NNE,32,1.0,1.0,89,0.00,,,0.00,Wunderground v.1.15,2013-01-29 17:39:00,
2013-01-29 12:48:00,38.6,35.1,30.04,ENE,76,1.0,1.0,87,0.00,,,0.00,Wunderground v.1.15,2013-01-29 17:48:00,
2013-01-29 12:59:00,38.7,35.2,30.04,NE,56,1.0,2.0,87,0.00,,,0.00,Wunderground v.1.15,2013-01-29 17:59:00,
2013-01-29 13:09:00,38.7,35.5,30.03,East,101,1.0,1.0,88,0.00,,,0.00,Wunderground v.1.15,2013-01-29 18:09:00,
2013-01-29 13:19:00,39.5,36.0,30.03,ENE,59,0.0,2.0,87,0.00,,,0.00,Wunderground v.1.15,2013-01-29 18:19:00,
2013-01-29 13:28:00,38.8,35.0,30.03,ENE,59,2.0,2.0,86,0.00,,,0.00,Wunderground v.1.15,2013-01-29 18:28:00,
2013-01-29 13:38:00,38.7,35.2,30.03,NE,50,2.0,2.0,87,0.00,,,0.00,Wunderground v.1.15,2013-01-29 18:38:00,
2013-01-29 13:48:00,38.4,34.9,30.03,NE,51,2.0,2.0,87,0.00,,,0.00,Wunderground v.1.15,2013-01-29 18:48:00,
2013-01-29 13:58:00,39.1,35.6,30.03,NE,44,1.0,1.0,87,0.00,,,0.00,Wunderground v.1.15,2013-01-29 18:58:00,
2013-01-29 14:09:00,39.0,35.5,30.03,NNE,28,1.0,3.0,87,0.00,,,0.00,Wunderground v.1.15,2013-01-29 19:09:00,
2013-01-29 14:19:00,39.4,35.9,30.03,NE,55,1.0,1.0,87,0.00,,,0.00,Wunderground v.1.15,2013-01-29 19:19:00,
2013-01-29 14:29:00,38.8,34.7,30.03,NE,51,2.0,3.0,85,0.00,,,0.00,Wunderground v.1.15,2013-01-29 19:29:00,
2013-01-29 14:39:00,38.8,35.0,30.03,ENE,57,2.0,2.0,86,0.00,,,0.00,Wunderground v.1.15,2013-01-29 19:39:00,
2013-01-29 14:49:00,38.8,35.3,30.03,East,92,1.0,1.0,87,0.00,,,0.00,Wunderground v.1.15,2013-01-29 19:49:00,
2013-01-29 14:59:00,38.7,34.6,30.03,ENE,59,1.0,1.0,85,0.00,,,0.00,Wunderground v.1.15,2013-01-29 19:59:00,
2013-01-29 15:09:00,37.9,34.1,30.02,East,83,1.0,1.0,86,0.00,,,0.00,Wunderground v.1.15,2013-01-29 20:09:00,
2013-01-29 15:19:00,37.9,34.4,30.03,ESE,102,0.0,0.0,87,0.00,,,0.00,Wunderground v.1.15,2013-01-29 20:19:00,
2013-01-29 15:29:00,38.2,35.0,30.03,East,101,0.0,0.0,88,0.00,,,0.00,Wunderground v.1.15,2013-01-29 20:29:00,
2013-01-29 15:39:00,38.7,35.5,30.04,ENE,64,0.0,0.0,88,0.00,,,0.00,Wunderground v.1.15,2013-01-29 20:39:00,
2013-01-29 15:49:00,39.4,36.1,30.06,SE,142,0.0,0.0,88,0.00,,,0.00,Wunderground v.1.15,2013-01-29 20:49:00,
2013-01-29 15:59:00,39.5,36.0,30.06,SE,130,0.0,0.0,87,0.00,,,0.00,Wunderground v.1.15,2013-01-29 20:59:00,
2013-01-29 16:09:00,39.4,35.9,30.04,ESE,114,1.0,1.0,87,0.00,,,0.00,Wunderground v.1.15,2013-01-29 21:09:00,
2013-01-29 16:19:00,39.2,35.7,30.03,South,178,1.0,1.0,87,0.00,,,0.00,Wunderground v.1.15,2013-01-29 21:19:00,
2013-01-29 16:29:00,38.8,35.3,30.03,ESE,106,1.0,1.0,87,0.00,,,0.00,Wunderground v.1.15,2013-01-29 21:29:00,
2013-01-29 16:39:00,38.5,35.3,30.03,SW,229,1.0,2.0,88,0.00,,,0.00,Wunderground v.1.15,2013-01-29 21:39:00,
2013-01-29 16:49:00,38.3,35.1,30.04,SSE,159,0.0,1.0,88,0.00,,,0.00,Wunderground v.1.15,2013-01-29 21:49:00,
2013-01-29 16:59:00,38.0,35.0,30.04,SSW,198,1.0,1.0,89,0.00,,,0.00,Wunderground v.1.15,2013-01-29 21:59:00,
2013-01-29 17:09:00,37.7,34.8,30.04,South,176,1.0,1.0,89,0.00,,,0.00,Wunderground v.1.15,2013-01-29 22:09:00,
2013-01-29 17:19:00,37.4,34.7,30.03,WSW,254,1.0,1.0,90,0.00,,,0.00,Wunderground v.1.15,2013-01-29 22:19:00,
2013-01-29 17:29:00,37.2,34.8,30.03,SW,218,1.0,1.0,91,0.00,,,0.00,Wunderground v.1.15,2013-01-29 22:29:00,
2013-01-29 17:39:00,37.1,34.7,30.06,SSE,160,0.0,0.0,91,0.00,,,0.00,Wunderground v.1.15,2013-01-29 22:39:00,
2013-01-29 17:49:00,37.1,34.7,30.07,ESE,108,0.0,0.0,91,0.00,,,0.00,Wunderground v.1.15,2013-01-29 22:49:00,
2013-01-29 17:59:00,37.0,34.6,30.07,ESE,122,0.0,0.0,91,0.00,,,0.00,Wunderground v.1.15,2013-01-29 22:59:00,
2013-01-29 18:08:00,36.9,34.5,30.07,SE,126,0.0,0.0,91,0.00,,,0.00,Wunderground v.1.15,2013-01-29 23:08:00,
2013-01-29 18:18:00,36.8,34.7,30.07,ESE,118,0.0,0.0,92,0.00,,,0.00,Wunderground v.1.15,2013-01-29 23:18:00,
2013-01-29 18:28:00,36.7,34.6,30.07,NE,49,0.0,0.0,92,0.00,,,0.00,Wunderground v.1.15,2013-01-29 23:28:00,
2013-01-29 18:38:00,36.5,34.4,30.06,ESE,113,1.0,1.0,92,0.00,,,0.00,Wunderground v.1.15,2013-01-29 23:38:00,
2013-01-29 18:48:00,36.5,34.4,30.04,SSE,156,1.0,1.0,92,0.00,,,0.00,Wunderground v.1.15,2013-01-29 23:48:00,
2013-01-29 18:58:00,36.3,34.2,30.04,SSW,210,0.0,0.0,92,0.00,,,0.00,Wunderground v.1.15,2013-01-29 23:58:00,
2013-01-29 19:09:00,36.3,34.2,30.04,SSE,151,1.0,2.0,92,0.00,,,0.00,Wunderground v.1.15,2013-01-30 00:09:00,
2013-01-29 19:19:00,36.1,34.0,30.01,SSW,200,1.0,1.0,92,0.00,,,0.00,Wunderground v.1.15,2013-01-30 00:19:00,
2013-01-29 19:29:00,36.0,34.2,30.01,SW,236,1.0,1.0,93,0.00,,,0.00,Wunderground v.1.15,2013-01-30 00:29:00,
2013-01-29 19:39:00,36.0,34.2,30.01,WSW,254,0.0,0.0,93,0.00,,,0.00,Wunderground v.1.15,2013-01-30 00:39:00,
2013-01-29 19:49:00,35.8,34.0,30.02,ESE,105,0.0,0.0,93,0.00,,,0.00,Wunderground v.1.15,2013-01-30 00:49:00,
2013-01-29 19:59:00,35.9,34.3,30.02,ESE,111,0.0,0.0,94,0.00,,,0.00,Wunderground v.1.15,2013-01-30 00:59:00,
2013-01-29 20:09:00,36.1,34.5,30.03,ESE,117,0.0,0.0,94,0.00,,,0.00,Wunderground v.1.15,2013-01-30 01:09:00,
2013-01-29 20:19:00,36.4,34.8,30.03,SSE,147,0.0,0.0,94,0.00,,,0.00,Wunderground v.1.15,2013-01-30 01:19:00,
2013-01-29 20:29:00,36.6,35.0,30.03,SE,146,0.0,0.0,94,0.00,,,0.00,Wunderground v.1.15,2013-01-30 01:29:00,
2013-01-29 20:39:00,36.8,35.2,30.04,SSE,147,0.0,0.0,94,0.00,,,0.00,Wunderground v.1.15,2013-01-30 01:39:00,
2013-01-29 20:49:00,36.7,35.1,30.03,SE,146,0.0,0.0,94,0.00,,,0.00,Wunderground v.1.15,2013-01-30 01:49:00,
2013-01-29 20:59:00,36.8,35.2,30.03,SE,146,0.0,0.0,94,0.00,,,0.00,Wunderground v.1.15,2013-01-30 01:59:00,
2013-01-29 21:09:00,36.7,35.1,30.03,SE,146,0.0,0.0,94,0.00,,,0.01,Wunderground v.1.15,2013-01-30 02:09:00,
2013-01-29 21:19:00,36.8,35.2,30.03,SSE,147,0.0,0.0,94,0.00,,,0.01,Wunderground v.1.15,2013-01-30 02:19:00,
2013-01-29 21:29:00,36.5,34.9,30.03,NNE,14,0.0,0.0,94,0.00,,,0.01,Wunderground v.1.15,2013-01-30 02:29:00,
2013-01-29 21:39:00,36.3,34.7,30.04,NW,326,0.0,0.0,94,0.00,,,0.01,Wunderground v.1.15,2013-01-30 02:39:00,
2013-01-29 21:49:00,36.3,34.7,30.03,ESE,106,0.0,0.0,94,0.00,,,0.01,Wunderground v.1.15,2013-01-30 02:49:00,
2013-01-29 21:59:00,36.5,35.2,30.03,East,93,0.0,2.0,95,0.00,,,0.01,Wunderground v.1.15,2013-01-30 02:59:00,
2013-01-29 22:09:00,36.9,35.6,30.03,East,92,0.0,0.0,95,0.00,,,0.01,Wunderground v.1.15,2013-01-30 03:09:00,
2013-01-29 22:19:00,37.1,35.8,30.01,East,92,0.0,0.0,95,0.00,,,0.01,Wunderground v.1.15,2013-01-30 03:19:00,
2013-01-29 22:29:00,37.4,36.1,30.01,ESE,103,0.0,0.0,95,0.00,,,0.01,Wunderground v.1.15,2013-01-30 03:29:00,
2013-01-29 22:39:00,37.4,36.1,30.01,South,191,0.0,0.0,95,0.00,,,0.01,Wunderground v.1.15,2013-01-30 03:39:00,
2013-01-29 22:49:00,37.3,36.0,30.01,SSE,161,0.0,0.0,95,0.00,,,0.01,Wunderground v.1.15,2013-01-30 03:49:00,
2013-01-29 22:59:00,37.3,36.0,30.01,SW,228,0.0,1.0,95,0.00,,,0.01,Wunderground v.1.15,2013-01-30 03:59:00,
2013-01-29 23:09:00,37.3,36.0,30.00,SSW,210,0.0,0.0,95,0.00,,,0.01,Wunderground v.1.15,2013-01-30 04:09:00,
2013-01-29 23:19:00,37.4,36.1,30.01,SE,144,0.0,0.0,95,0.00,,,0.01,Wunderground v.1.15,2013-01-30 04:19:00,
2013-01-29 23:29:00,37.6,36.3,30.01,WSW,254,0.0,0.0,95,0.00,,,0.01,Wunderground v.1.15,2013-01-30 04:29:00,
2013-01-29 23:38:00,37.8,36.8,30.00,East,98,0.0,0.0,96,0.00,,,0.01,Wunderground v.1.15,2013-01-30 04:38:00,
2013-01-29 23:48:00,38.2,37.2,30.01,ESE,114,0.0,0.0,96,0.00,,,0.01,Wunderground v.1.15,2013-01-30 04:48:00,
2013-01-29 23:59:00,38.6,37.6,30.01,ESE,113,0.0,0.0,96,0.00,,,0.01,Wunderground v.1.15,2013-01-30 04:59:00,